Harrison, AR

4:34 AM CDT on March 27, 2017 (GMT -0500)
Boone County

Weather History for KHRO - May, 2013

Change the Weather History Date:

Thursday, May 16, 2013

  Actual Average Record
Temperature  
Mean Temperature 62 °F 66 °F  
Max Temperature 64 °F 76 °F 90 °F (1928)
Min Temperature 60 °F 55 °F 35 °F (1912)
Degree Days  
Heating Degree Days 3 2  
Month to date heating degree days 118 54  
Since 1 July heating degree days 3954 3975  
Cooling Degree Days 0 3  
Month to date cooling degree days 30 38  
Year to date cooling degree days 62 75  
Growing Degree Days 12 (Base 50)    
Moisture  
Dew Point 60 °F    
Average Humidity 95    
Maximum Humidity 100    
Minimum Humidity 90    
Precipitation  
Precipitation 0.14 in 0.16 in 2.23 in (1910)
Month to date precipitation 2.99 2.61  
Year to date precipitation 16.33 15.92  
Snow  
Snow 0.00 in 0.00 in - ()
Month to date snowfall 0.1 0.0  
Since 1 July snowfall 4.7 11.5  
Snow Depth 0.00 in    
Sea Level Pressure  
Sea Level Pressure 29.90 in    
Wind  
Wind Speed 7 mph (SE)    
Max Wind Speed 13 mph    
Max Gust Speed 16 mph    
Visibility 6 miles    
Events Rain    
T = Trace of Precipitation, MM = Missing Value Source: NWS Daily Summary

Daily Weather History Graph

Daily Weather History Graph

Search for Another Location

Airport or City:

Trip Planner

Search our weather history database for the weather conditions in past years. The results will help you decide how hot, cold, wet, or windy it might be!

Date:

Astronomy

May. 16, 2013 Rise Set
Actual Time 6:05 AM CDT 8:13 PM CDT
Civil Twilight 5:36 AM CDT 8:41 PM CDT
Nautical Twilight 5:01 AM CDT 9:17 PM CDT
Astronomical Twilight 4:23 AM CDT 9:55 PM CDT
Moon 11:35 AM CDT (5/16) 12:37 AM CDT (5/16)
Length of Visible Light 15h 05m
Length of Day
14h 07m
Waxing Crescent, 36% of the Moon is Illuminated
May 16
Waxing Crescent
May 17
First Quarter
May 24
Full
May 31
Last Quarter
Jun 8
New

Hourly Weather History & Observations

Time (CDT) Temp. Dew Point Humidity Pressure Visibility Wind Dir Wind Speed Gust Speed Precip Events Conditions
12:53 AM 63.0 °F 61.0 °F 93% 29.89 in 8.0 mi SSE 4.6 mph - N/A   Partly Cloudy
1:38 AM 62.6 °F 62.6 °F 100% 29.91 in 8.0 mi SE 8.1 mph - N/A   Partly Cloudy
1:53 AM 63.0 °F 61.0 °F 93% 29.87 in 7.0 mi SE 8.1 mph - N/A   Clear
2:12 AM 62.6 °F 60.8 °F 94% 29.90 in 9.0 mi SSE 6.9 mph - N/A   Mostly Cloudy
2:53 AM 63.0 °F 60.1 °F 90% 29.87 in 10.0 mi SSE 5.8 mph - N/A   Overcast
3:53 AM 62.1 °F 60.1 °F 93% 29.87 in 10.0 mi SSE 9.2 mph - N/A   Scattered Clouds
4:00 AM 62.6 °F 59.0 °F 88% 29.90 in 10.0 mi SSE 9.2 mph - N/A   Mostly Cloudy
4:53 AM 62.1 °F 59.0 °F 90% 29.88 in 10.0 mi SSE 5.8 mph - N/A   Overcast
5:53 AM 62.1 °F 59.0 °F 90% 29.89 in 10.0 mi SE 6.9 mph - N/A   Overcast
6:53 AM 61.0 °F 57.9 °F 90% 29.90 in 10.0 mi ESE 5.8 mph - N/A   Overcast
7:53 AM 61.0 °F 57.9 °F 90% 29.92 in 10.0 mi SE 8.1 mph - 0.01 in   Overcast
8:07 AM 60.8 °F 57.2 °F 88% 29.94 in 10.0 mi ESE 5.8 mph - 0.00 in Rain Light Rain
8:53 AM 61.0 °F 59.0 °F 93% 29.92 in 8.0 mi SE 8.1 mph - 0.00 in Rain Light Rain
9:16 AM 60.8 °F 59.0 °F 94% 29.95 in 7.0 mi SE 9.2 mph - 0.02 in Rain Light Rain
9:28 AM 60.8 °F 59.0 °F 94% 29.95 in 8.0 mi ESE 8.1 mph - 0.02 in Rain Light Rain
9:41 AM 60.8 °F 59.0 °F 94% 29.95 in 6.0 mi ESE 8.1 mph - 0.02 in   Overcast
9:53 AM 61.0 °F 59.0 °F 93% 29.92 in 7.0 mi SE 9.2 mph - 0.02 in   Overcast
10:26 AM 60.8 °F 59.0 °F 94% 29.94 in 2.5 mi SE 10.4 mph - 0.01 in Rain Light Rain
10:53 AM 61.0 °F 60.1 °F 97% 29.92 in 3.0 mi SE 10.4 mph - 0.05 in Rain Light Rain
11:17 AM 60.8 °F 60.8 °F 100% 29.94 in 6.0 mi SE 10.4 mph - 0.01 in Rain Light Rain
11:41 AM 60.8 °F 60.8 °F 100% 29.94 in 5.0 mi ESE 9.2 mph - 0.02 in Rain Light Rain
11:53 AM 61.0 °F 60.1 °F 97% 29.91 in 6.0 mi SE 10.4 mph - 0.03 in Rain Light Rain
12:49 PM 62.6 °F 60.8 °F 94% 29.92 in 7.0 mi SE 11.5 mph - 0.02 in Rain Light Rain
12:53 PM 62.1 °F 61.0 °F 96% 29.90 in 7.0 mi SE 9.2 mph - 0.02 in Rain Light Rain
1:26 PM 62.6 °F 60.8 °F 94% 29.92 in 5.0 mi SE 10.4 mph - N/A Rain Light Rain
1:37 PM 62.6 °F 60.8 °F 94% 29.92 in 6.0 mi SE 10.4 mph - 0.01 in Rain Light Rain
1:53 PM 63.0 °F 61.0 °F 93% 29.90 in 8.0 mi SE 9.2 mph - 0.01 in Rain Light Rain
2:02 PM 62.6 °F 60.8 °F 94% 29.92 in 5.0 mi ESE 9.2 mph - 0.00 in Rain Light Rain
2:17 PM 62.6 °F 60.8 °F 94% 29.92 in 6.0 mi ESE 10.4 mph - 0.00 in   Overcast
2:53 PM 62.1 °F 61.0 °F 96% 29.88 in 5.0 mi ESE 11.5 mph - 0.00 in   Overcast
3:05 PM 62.6 °F 60.8 °F 94% 29.91 in 4.0 mi SE 10.4 mph - N/A   Overcast
3:53 PM 63.0 °F 60.1 °F 90% 29.88 in 10.0 mi ESE 8.1 mph - N/A   Overcast
4:53 PM 63.0 °F 61.0 °F 93% 29.86 in 10.0 mi SE 8.1 mph - N/A   Overcast
5:53 PM 63.0 °F 61.0 °F 93% 29.86 in 10.0 mi SE 4.6 mph - N/A   Overcast
6:53 PM 63.0 °F 61.0 °F 93% 29.85 in 10.0 mi East 6.9 mph - N/A   Overcast
7:53 PM 63.0 °F 61.0 °F 93% 29.86 in 9.0 mi East 4.6 mph - N/A   Overcast
8:25 PM 62.6 °F 60.8 °F 94% 29.88 in 6.0 mi ESE 5.8 mph - N/A   Overcast
8:53 PM 62.1 °F 61.0 °F 96% 29.86 in 4.0 mi East 5.8 mph - N/A   Overcast
9:16 PM 62.6 °F 60.8 °F 94% 29.89 in 2.5 mi SE 5.8 mph - N/A   Overcast
9:30 PM 62.6 °F 60.8 °F 94% 29.89 in 1.2 mi SE 5.8 mph - N/A   Overcast
9:37 PM 62.6 °F 60.8 °F 94% 29.90 in 1.0 mi SE 5.8 mph - N/A   Mist
9:53 PM 62.1 °F 62.1 °F 100% 29.88 in 2.0 mi SE 5.8 mph - N/A   Overcast
10:01 PM 62.6 °F 62.6 °F 100% 29.90 in 1.5 mi SE 5.8 mph - N/A   Overcast
10:46 PM 62.6 °F 62.6 °F 100% 29.91 in 2.5 mi SE 6.9 mph - N/A   Overcast
10:53 PM 62.1 °F 62.1 °F 100% 29.88 in 3.0 mi SE 4.6 mph - N/A   Overcast
11:53 PM 62.1 °F 62.1 °F 100% 29.89 in 3.0 mi SSE 3.5 mph - N/A   Overcast